Location: Clinton NY
(43.0598°N, 75.3602°W)
Time: 02:17:58
(UTC-04:00)

Daily predictions for brighter satellites

Satellite Brightness Start Highest point End
(mag) Time Altitude Azimuth Time Altitude Azimuth Time Altitude Azimuth
SL-16 R/B 3.4 00:11:47 39° NW 00:11:47 39° NW 00:16:23 10° NNE
Terra 4.4 00:19:09 14° WNW 00:19:09 14° WNW 00:20:27 10° NW
Cosmos 1844 Rocket 4.0 00:24:07 10° NNW 00:27:35 34° N 00:27:35 34° N
Cosmos 2360 Rocket 3.5 00:32:37 36° N 00:32:37 36° N 00:35:56 10° NNE
CZ-2C R/B 4.5 00:31:43 10° NNE 00:34:11 25° NE 00:34:11 25° NE
ATLAS 3B R/B 4.2 00:53:16 27° ENE 00:53:16 27° ENE 00:57:12 10° NE
Cosmos 2219 Rocket 4.1 00:55:54 23° NE 00:55:54 23° NE 00:58:05 10° NE
Cosmos 2263 Rocket 4.5 00:55:01 10° NW 00:56:22 15° WNW 00:56:22 15° WNW
Cosmos 2333 Rocket 4.1 01:03:46 24° NE 01:03:46 24° NE 01:06:11 10° NE
Cosmos 2322 Rocket 4.4 01:00:20 17° WNW 01:01:23 18° NW 01:05:07 10° N
Cosmos 2237 Rocket 4.1 01:10:34 23° NE 01:10:34 23° NE 01:12:56 10° NE
COSMOS 2428 4.0 01:19:05 36° N 01:19:05 36° N 01:22:33 10° NNE
Lacrosse 4 Rocket 4.2 01:35:57 17° N 01:35:57 17° N 01:37:21 10° N
Cosmos 2278 Rocket 3.6 01:35:34 10° NNW 01:38:34 33° NNW 01:38:34 33° NNW
COSMOS 2455 3.5 02:11:16 50° N 02:11:16 50° N 02:15:50 10° NNE
CZ-2C R/B 4.3 02:12:20 10° N 02:15:42 26° NW 02:15:42 26° NW
CZ-4C R/B 3.3 02:28:47 38° ENE 02:28:47 38° ENE 02:32:54 10° NE
Cosmos 2219 Rocket 3.6 02:37:37 28° NW 02:37:37 28° NW 02:41:44 10° N
NPP 4.3 02:33:17 10° NNE 02:37:35 50° ENE 02:37:35 50° ENE
ATLAS 3B R/B 3.1 02:40:31 59° WNW 02:41:06 60° NW 02:48:26 10° NNE
Cosmos 2333 Rocket 3.5 02:45:46 32° NW 02:45:46 32° NW 02:50:21 10° N
SL-16 R/B 2.6 02:46:25 59° N 02:46:25 59° N 02:51:04 10° NNE
Cosmos 2237 Rocket 3.4 02:52:23 32° NW 02:52:23 32° NW 02:56:55 10° N
SL-16 R/B 3.7 02:49:18 20° ESE 02:52:55 39° ENE 02:58:34 10° N
ADEOS 4.3 02:51:25 10° NNE 02:56:07 46° E 02:56:07 46° E
S3M 4.2 02:57:10 58° ESE 02:57:42 60° E 03:03:52 10° NNE
Cosmos 1867 3.9 02:58:54 64° NNE 02:58:54 64° NNE 03:03:31 10° NNE
Resurs 1-4 Rocket 3.5 03:01:50 10° NE 03:06:27 30° E 03:07:28 28° ESE
Cosmos 1269 Rocket 4.3 03:07:21 63° N 03:07:21 63° N 03:11:51 10° NNE
IRAS Rocket 4.5 03:01:31 10° NNE 03:07:06 60° ESE 03:07:13 60° ESE
ARIANE 5 R/B 3.4 03:05:11 10° NNE 03:10:08 41° E 03:10:37 40° ESE
Cosmos 1869 Rocket 4.4 03:12:38 10° N 03:16:34 48° ENE 03:16:34 48° ENE
Cosmos 1553 Rocket 3.8 03:18:01 76° S 03:18:33 86° E 03:24:43 10° N
ERS-2 3.9 03:15:59 10° NNE 03:18:17 32° NE 03:18:17 32° NE
Cosmos 1745 Rocket 4.0 03:14:57 10° N 03:21:22 82° E 03:22:44 58° SSE
Cosmos 1603 3.5 03:27:28 83° SSW 03:27:43 90° W 03:33:29 10° NNE
USA 234 3.2 03:22:06 10° NE 03:28:41 78° SE 03:29:55 61° SSW
ATLAS 5 CENTAUR R/B 3.9 03:27:55 15° SE 03:29:10 17° ESE 03:32:22 10° ENE
USA 238 DEB 4.0 03:28:04 50° W 03:29:29 58° NW 03:36:28 10° NNE
USA 238 4.0 03:28:10 50° W 03:29:35 58° NW 03:36:34 10° NNE
Cosmos 1356 Rocket 4.1 03:29:52 10° N 03:33:17 51° NE 03:33:17 51° NE
SL-08 R/B 4.3 03:28:05 10° NNW 03:34:09 69° W 03:34:33 67° WSW
Meteor 2-3 Rocket 4.1 03:29:13 10° N 03:34:57 65° ENE 03:37:45 31° SSE
ERBS 4.1 03:36:28 32° NNE 03:36:28 32° NNE 03:38:34 10° NE
In-Cosmos 22 Rocket 4.1 03:30:16 10° N 03:35:36 75° E 03:36:47 54° SSE
SeaSat 1 3.8 03:31:30 10° ESE 03:36:02 39° NE 03:40:36 10° NNW
ATLAS CENTAUR R/B 2.5 03:35:11 10° NNW 03:39:27 44° NE 03:43:20 10° ESE
Cosmos 158 Rocket 3.7 03:41:36 81° W 03:41:44 82° WNW 03:46:46 10° NNE
Cosmos 2251 Rocket 3.7 03:41:12 56° SSE 03:42:03 65° ESE 03:47:15 10° NNE
NOSS 3-2 (A) 3.4 03:44:53 58° SW 03:46:15 90° NE 03:52:57 10° NE
Cosmos 1892 4.0 03:43:35 10° N 03:47:13 38° ENE 03:48:19 31° ESE
Cosmos 1110 Rocket 3.9 03:42:35 10° NNW 03:47:50 85° ENE 03:49:49 39° SSE
IRS-1C 4.4 03:43:16 10° N 03:48:24 49° WNW 03:48:35 49° WNW
NOSS 3-3 (A) 4.3 03:47:14 10° NW 03:54:42 80° SW 04:02:38 10° SSE
NOSS 3-3 (C) 4.3 03:47:20 10° NW 03:54:48 81° WSW 04:02:45 10° SSE
Cosmos 1733 Rocket 4.5 03:53:12 10° N 03:57:17 36° ENE 04:01:20 10° SE
Cosmos 1707 Rocket 3.5 03:59:34 70° W 03:59:37 70° W 04:04:05 10° N
Cosmos 1943 3.3 03:57:59 44° S 03:59:47 73° ESE 04:05:26 10° NNE
NOSS 3-2 (C) 3.4 03:59:50 47° SW 04:01:48 88° NW 04:08:32 10° NE
CZ-2D R/B 2.0 03:59:58 10° NNE 04:05:18 83° WNW 04:06:51 47° SSW
Cosmos 883 Rocket 4.3 04:04:59 39° SSW 04:07:24 79° W 04:13:34 10° N
Cosmos 1300 3.9 04:08:26 31° NW 04:08:26 31° NW 04:11:03 10° N
CENTAUR R/B 4.0 04:04:39 14° SSE 04:08:58 30° ESE 04:14:36 10° NE
Cosmos 1726 3.1 04:09:57 34° NW 04:09:57 34° NW 04:12:39 10° N
Cosmos 2369 Rocket 2.0 04:05:01 10° NNW 04:10:39 82° WSW 04:16:17 10° SSE
Cosmos 839 Rocket 4.3 04:02:43 10° NW 04:10:58 70° WSW 04:17:32 10° SSE
CZ-4B R/B 4.5 04:08:14 10° NNE 04:13:06 36° E 04:17:56 10° SSE
Cosmos 2315 Rocket 4.0 04:10:59 26° S 04:14:43 85° E 04:21:02 10° N
CZ-4C R/B 3.3 04:13:58 26° WNW 04:15:58 34° NW 04:21:33 10° NNE
Okean O Rocket 2.6 04:12:56 10° NNE 04:17:14 45° E 04:20:19 18° SSE
Cosmos 1455 2.4 04:19:25 38° SSE 04:20:46 69° E 04:24:40 10° NNE
ARGOS Delta rocket 3.8 04:19:51 10° NNE 04:24:16 68° E 04:26:51 24° S
Cosmos 1271 Rocket 4.3 04:25:24 24° WNW 04:25:24 24° WNW 04:28:15 10° NNW
SL-16 R/B 4.2 04:28:18 12° WNW 04:30:27 15° NW 04:33:36 10° N
Cosmos 494 Rocket 4.0 04:29:15 35° SW 04:31:21 63° WNW 04:36:36 10° NNE
MTI 3.7 04:31:15 62° SW 04:31:29 64° W 04:34:50 10° NNW
Abrixas rocket 3.8 04:30:26 22° NW 04:31:49 31° N 04:34:51 10° ENE
IRS-1D 4.2 04:30:42 10° N 04:35:27 37° WNW 04:37:09 29° WSW
CZ-2C R/B 3.7 04:32:02 10° SSE 04:36:29 82° ENE 04:40:56 10° NNW
SL-16 R/B 3.0 04:34:24 28° SW 04:36:32 36° W 04:42:12 10° NNW
Cosmos 1302 Rocket 3.9 04:33:27 10° NNW 04:38:40 67° WSW 04:43:50 10° S
Cosmos 2292 Rocket 3.3 04:35:53 10° NNW 04:38:11 38° WNW 04:38:11 38° WNW
Cosmos 2263 4.2 04:34:13 10° NNW 04:39:58 67° WSW 04:45:41 10° SSE
CZ-2D R/B 3.6 04:35:40 10° N 04:40:03 64° WNW 04:42:05 30° SW
Cosmos 1943 Rocket 2.3 04:35:41 10° NNW 04:41:24 77° ENE 04:47:02 10° SSE
Cosmos 389 Rocket 2.9 04:39:51 20° S 04:42:03 60° E 04:45:31 10° NNE
Resurs 1-4 Rocket 2.8 04:41:33 10° N 04:46:19 36° WNW 04:48:33 25° WSW
MOZ.5/SAFIR/RUBIN 5/SL-8 3.6 04:42:23 10° S 04:47:01 74° WSW 04:51:40 10° NNW
Cosmos 1862 4.1 04:44:57 10° N 04:48:53 53° E 04:52:46 10° SSE
ARIANE 5 R/B 3.7 04:44:42 10° N 04:49:03 27° WNW 04:50:57 22° W
CZ-4B R/B 2.9 04:46:42 10° NNE 04:50:20 67° ESE 04:53:37 13° S
PSLV R/B 3.4 04:50:52 36° WSW 04:52:00 60° S 04:55:22 10° E
Cosmos 2242 Rocket 4.4 04:51:13 26° WSW 04:52:52 34° WNW 04:57:04 10° N
ERS-2 4.3 04:51:11 10° NW 04:52:59 13° WNW 04:53:07 13° WNW
UNKNOWN OBJECT B 3.8 04:55:02 10° NNW 04:58:10 26° WNW 04:59:07 23° W
Cosmos 1825 2.5 04:55:54 10° N 04:59:41 66° E 05:03:27 10° SSE
Cosmos 1933 3.6 04:58:39 10° S 05:02:44 74° E 05:06:51 10° NNE
Cosmos 1869 3.6 05:00:56 21° SW 05:03:21 48° W 05:07:13 10° N
ADEOS II 3.1 04:59:28 10° NNE 05:04:33 46° E 05:09:34 10° S
Cosmos 1408 2.8 05:01:15 10° N 05:04:59 76° E 05:08:45 10° SSE
PSLV R/B 4.3 05:02:08 10° NNE 05:06:26 54° E 05:10:44 10° S
Cosmos 1184 Rocket 3.3 05:04:02 10° NNW 05:07:16 40° W 05:10:14 12° SSW
Geosat 4.3 05:02:47 10° NNE 05:07:49 66° ESE 05:12:47 10° SSW
Cosmos 1862 Rocket 3.9 05:05:10 17° SSW 05:08:15 46° WNW 05:12:30 10° N
Nadezhda 1 Rocket 4.2 05:02:14 10° S 05:08:27 78° E 05:14:49 10° N
USA 234 4.1 05:05:20 10° NE 05:11:22 41° NNW 05:17:15 11° W
Okean 2 Rocket 4.1 05:08:23 10° N 05:12:47 52° ENE 05:17:11 10° SSE
ATLAS 5 CENTAUR R/B 2.0 05:09:30 17° SW 05:13:11 66° NW 05:18:27 10° NNE
SeaSat 1 3.2 05:09:17 10° S 05:13:36 30° WSW 05:17:57 10° NW
Thor Agena Rocket 3.5 05:11:41 10° S 05:16:46 67° WSW 05:21:58 10° NNW
Cosmos 1656 Rocket 3.9 05:11:31 10° NNW 05:16:58 71° ENE 05:22:21 10° SSE
ATLAS CENTAUR R/B 2.7 05:15:08 10° WNW 05:18:08 19° WSW 05:20:58 10° SSW
Pageos (A) 3.7 05:16:14 10° NNW 05:18:11 29° W 05:19:06 20° SW
BREEZE-M DEB (TANK) 1.8 05:19:52 11° WNW 05:21:59 59° SSW 05:24:45 10° SE
Cosmos 1892 4.5 05:20:33 10° NW 05:22:38 14° W 05:23:20 14° W
CZ-3 R/B 4.5 04:48:12 10° W 05:25:54 36° SW 05:36:29 10° SSE
Okean 1-7 3.3 05:25:07 10° S 05:29:23 71° E 05:33:43 10° NNE
USA 32 4.0 05:24:22 10° S 05:29:34 72° W 05:34:50 10° N
Cosmos 2074 Rocket 4.2 05:23:56 10° NNW 05:29:54 50° W 05:35:52 10° SSW
Cosmos 2154 Rocket 4.2 05:23:38 10° N 05:30:00 82° E 05:36:21 10° S
Cosmos 2184 Rocket 4.2 05:25:29 10° NNW 05:31:38 52° W 05:37:45 10° SSW
Cosmos 1733 Rocket 4.4 05:31:40 10° NW 05:34:48 19° W 05:37:56 10° SW
Cosmos 1992 Rocket 4.0 05:31:27 10° NNW 05:36:39 66° WSW 05:41:48 10° S
COSMOS 2406 3.3 05:31:01 10° SSW 05:36:47 79° WNW 05:42:35 10° NNE
SL-27 R/B 3.0 05:33:53 10° SW 05:37:25 45° WNW 05:40:56 10° N
Cosmos 1782 Rocket 3.5 05:36:41 10° NNW 05:40:59 62° W 05:45:15 10° S
CZ-2D R/B 4.0 05:42:28 10° NNW 05:44:30 12° WNW 05:46:31 10° W
Cosmos 2341 Rocket 4.1 05:41:45 10° N 05:48:03 88° E 05:54:24 10° S
MOS 1 Rocket 3.8 05:45:58 10° NNE 05:50:14 57° E 05:54:26 10° S
